�搅�E���B���j�^�v������
Date,Time,�搅(cps),���B(cps),���J
2023/09/29,00:00,6.8,-,��
2023/09/29,00:10,6.9,-,��
2023/09/29,00:20,6.5,-,��
2023/09/29,00:30,6.7,-,��
2023/09/29,00:40,6.9,-,��
2023/09/29,00:50,6.8,-,��
2023/09/29,01:00,6.9,-,��
2023/09/29,01:10,7.0,-,��
2023/09/29,01:20,6.9,-,��
2023/09/29,01:30,6.8,-,��
2023/09/29,01:40,6.9,-,��
2023/09/29,01:50,7.0,-,��
2023/09/29,02:00,7.1,-,��
2023/09/29,02:10,6.8,-,��
2023/09/29,02:20,6.9,-,��
2023/09/29,02:30,6.9,-,��
2023/09/29,02:40,6.8,-,��
2023/09/29,02:50,6.9,-,��
2023/09/29,03:00,7.0,-,��
2023/09/29,03:10,7.1,-,��
2023/09/29,03:20,7.0,-,��
2023/09/29,03:30,7.0,-,��
2023/09/29,03:40,7.1,-,��
2023/09/29,03:50,7.2,-,��
2023/09/29,04:00,7.1,-,��
2023/09/29,04:10,7.0,-,��
2023/09/29,04:20,7.0,-,��
2023/09/29,04:30,7.0,-,��
2023/09/29,04:40,6.9,-,��
2023/09/29,04:50,7.0,-,��
2023/09/29,05:00,6.9,-,��
2023/09/29,05:10,6.8,-,��
2023/09/29,05:20,7.0,-,��
2023/09/29,05:30,6.8,-,��
2023/09/29,05:40,7.0,-,��
2023/09/29,05:50,7.0,-,��
2023/09/29,06:00,7.1,-,��
2023/09/29,06:10,7.0,-,��
2023/09/29,06:20,6.9,-,��
2023/09/29,06:30,7.1,-,��
2023/09/29,06:40,7.0,-,��
2023/09/29,06:50,7.0,-,��
2023/09/29,07:00,6.8,-,��
2023/09/29,07:10,6.9,-,��
2023/09/29,07:20,7.0,-,��
2023/09/29,07:30,7.0,-,��
2023/09/29,07:40,7.0,-,��
2023/09/29,07:50,6.8,-,��
2023/09/29,08:00,6.9,-,��
2023/09/29,08:10,7.0,-,��
2023/09/29,08:20,7.0,-,��
2023/09/29,08:30,7.0,-,��
2023/09/29,08:40,7.0,-,��
2023/09/29,08:50,6.9,-,��
2023/09/29,09:00,6.9,-,��
2023/09/29,09:10,6.8,-,��
2023/09/29,09:20,6.8,-,��
2023/09/29,09:30,6.9,-,��
2023/09/29,09:40,7.0,-,��
2023/09/29,09:50,6.8,-,��
2023/09/29,10:00,6.9,-,��
2023/09/29,10:10,6.9,-,��
2023/09/29,10:20,6.9,-,��
2023/09/29,10:30,6.8,-,��
2023/09/29,10:40,6.9,-,��
2023/09/29,10:50,7.1,-,��
2023/09/29,11:00,7.0,-,��
2023/09/29,11:10,6.9,-,��
2023/09/29,11:20,6.9,-,��
2023/09/29,11:30,6.9,-,��
2023/09/29,11:40,7.0,-,��
2023/09/29,11:50,7.0,-,��
2023/09/29,12:00,7.0,-,��
2023/09/29,12:10,6.9,-,��
2023/09/29,12:20,7.0,-,��
2023/09/29,12:30,7.0,-,��
2023/09/29,12:40,6.9,-,��
2023/09/29,12:50,6.8,-,��
2023/09/29,13:00,7.0,-,��
2023/09/29,13:10,7.1,-,��
2023/09/29,13:20,6.9,-,��
2023/09/29,13:30,6.8,-,��
2023/09/29,13:40,6.8,-,��
2023/09/29,13:50,7.0,-,��
2023/09/29,14:00,6.9,-,��
2023/09/29,14:10,7.0,-,��
2023/09/29,14:20,6.9,-,��
2023/09/29,14:30,6.7,-,��
2023/09/29,14:40,6.6,-,��
2023/09/29,14:50,6.9,-,��
2023/09/29,15:00,6.8,-,��
2023/09/29,15:10,6.7,-,��
2023/09/29,15:20,6.8,-,��
2023/09/29,15:30,6.9,-,��
2023/09/29,15:40,6.9,-,��
2023/09/29,15:50,6.7,-,��
2023/09/29,16:00,6.8,-,��
2023/09/29,16:10,6.7,-,��
2023/09/29,16:20,6.8,-,��
2023/09/29,16:30,6.9,-,��
2023/09/29,16:40,6.8,-,��
2023/09/29,16:50,6.6,-,��
2023/09/29,17:00,6.8,-,��
2023/09/29,17:10,6.9,-,��
2023/09/29,17:20,6.8,-,��
2023/09/29,17:30,6.8,-,��
2023/09/29,17:40,6.8,-,��
2023/09/29,17:50,6.6,-,��
2023/09/29,18:00,6.7,-,��
2023/09/29,18:10,6.7,-,��
2023/09/29,18:20,6.8,-,��
2023/09/29,18:30,6.7,-,��
2023/09/29,18:40,6.7,-,��
2023/09/29,18:50,6.8,-,��
2023/09/29,19:00,6.7,-,��
2023/09/29,19:10,7.0,-,�L
2023/09/29,19:20,6.7,-,�L
2023/09/29,19:30,6.6,-,��
2023/09/29,19:40,6.5,-,��
2023/09/29,19:50,6.6,-,��
2023/09/29,20:00,6.6,-,��
2023/09/29,20:10,6.6,-,��
2023/09/29,20:20,6.7,-,��
2023/09/29,20:30,6.6,-,��
2023/09/29,20:40,6.6,-,��
2023/09/29,20:50,6.7,-,��
2023/09/29,21:00,6.6,-,��
2023/09/29,21:10,6.7,-,��
2023/09/29,21:20,6.7,-,��
2023/09/29,21:30,6.6,-,��
2023/09/29,21:40,6.7,-,��
2023/09/29,21:50,6.8,-,��
2023/09/29,22:00,6.5,-,��
2023/09/29,22:10,6.7,-,��
2023/09/29,22:20,6.6,-,��
2023/09/29,22:30,6.8,-,��
2023/09/29,22:40,6.5,-,��
2023/09/29,22:50,6.5,-,��
2023/09/29,23:00,6.8,-,��
2023/09/29,23:10,6.9,-,��
2023/09/29,23:20,6.8,-,��
2023/09/29,23:30,6.7,-,��
2023/09/29,23:40,6.6,-,��
2023/09/29,23:50,6.7,-,��
